• en Belgique
  • Liste des pays
  • À 7 jours
  • Température de l'eau
  • Carte satellitaire
  • Carte météo
  • Widgets météo
  • user-avatar
    Se connecter

    Météo par heure à Victoria

    Ce jour, 21 Septembre, Jeudi

    Heure Température Précipitation Vent Pression Humidité
    00:00 +7°C° 0 mm 3 m/s 750 mmHg 84%
    01:00 +7°C° 0 mm 3 m/s 750 mmHg 86%
    02:00 +5°C° 0 mm 3 m/s 750 mmHg 87%
    03:00 +5°C° 0 mm 3 m/s 750 mmHg 88%
    04:00 +5°C° 0 mm 3 m/s 749 mmHg 89%
    05:00 +5°C° 0 mm 3 m/s 749 mmHg 88%
    06:00 +5°C° 0 mm 3 m/s 749 mmHg 87%
    07:00 +5°C° 0 mm 4 m/s 749 mmHg 86%
    08:00 +8°C° 0 mm 4 m/s 749 mmHg 80%
    09:00 +10°C° 0 mm 5 m/s 749 mmHg 73%
    10:00 +13°C° 0 mm 6 m/s 749 mmHg 65%
    11:00 +15°C° 0 mm 6 m/s 748 mmHg 62%
    12:00 +17°C° 0 mm 6 m/s 748 mmHg 59%
    13:00 +20°C° 0 mm 6 m/s 747 mmHg 56%
    14:00 +21°C° 0 mm 5 m/s 746 mmHg 59%
    15:00 +21°C° 0 mm 4 m/s 746 mmHg 61%
    16:00 +22°C° 0 mm 4 m/s 745 mmHg 64%
    17:00 +20°C° 0 mm 4 m/s 745 mmHg 65%
    18:00 +18°C° 0 mm 4 m/s 745 mmHg 66%
    19:00 +15°C° 0 mm 4 m/s 745 mmHg 67%
    20:00 +14°C° 0 mm 4 m/s 745 mmHg 67%
    21:00 +13°C° 0 mm 3 m/s 746 mmHg 66%
    22:00 +12°C° 0 mm 3 m/s 746 mmHg 66%
    23:00 +13°C° 0 mm 2 m/s 746 mmHg 68%

    Demain, 22 Septembre, Vendredi

    Heure Température Précipitation Vent Pression Humidité
    00:00 +12°C° 0 mm 2 m/s 746 mmHg 70%
    01:00 +10°C° 0 mm 2 m/s 746 mmHg 71%
    02:00 +9°C° 0 mm 2 m/s 746 mmHg 73%
    03:00 +9°C° 0 mm 2 m/s 746 mmHg 75%
    04:00 +8°C° 0 mm 2 m/s 745 mmHg 76%
    05:00 +8°C° 0 mm 2 m/s 746 mmHg 77%
    06:00 +8°C° 0 mm 2 m/s 746 mmHg 77%
    07:00 +8°C° 0 mm 2 m/s 746 mmHg 78%
    08:00 +12°C° 0 mm 2 m/s 746 mmHg 73%
    09:00 +13°C° 0 mm 3 m/s 746 mmHg 68%
    10:00 +16°C° 0 mm 3 m/s 746 mmHg 63%
    11:00 +18°C° 0 mm 3 m/s 745 mmHg 62%
    12:00 +20°C° 0 mm 4 m/s 745 mmHg 61%
    13:00 +21°C° 0 mm 4 m/s 744 mmHg 60%
    14:00 +22°C° 0 mm 3 m/s 744 mmHg 61%
    15:00 +24°C° 0 mm 3 m/s 743 mmHg 63%
    16:00 +24°C° 0 mm 2 m/s 743 mmHg 64%
    17:00 +21°C° 0 mm 3 m/s 743 mmHg 69%
    18:00 +18°C° 0 mm 3 m/s 743 mmHg 74%
    19:00 +16°C° 0 mm 3 m/s 743 mmHg 80%
    20:00 +14°C° 0 mm 3 m/s 743 mmHg 78%
    21:00 +15°C° 0 mm 2 m/s 743 mmHg 76%
    22:00 +14°C° 0 mm 2 m/s 743 mmHg 75%
    23:00 +13°C° 0 mm 2 m/s 743 mmHg 74%

    Après-demain, 23 Septembre, Samedi

    Heure Température Précipitation Vent Pression Humidité
    00:00 +12°C° 0 mm 3 m/s 742 mmHg 74%
    01:00 +12°C° 0 mm 3 m/s 742 mmHg 73%
    02:00 +11°C° 0 mm 3 m/s 742 mmHg 73%
    03:00 +11°C° 0 mm 3 m/s 741 mmHg 73%
    04:00 +11°C° 0 mm 3 m/s 741 mmHg 73%
    05:00 +11°C° 0 mm 4 m/s 740 mmHg 71%
    06:00 +11°C° 0 mm 4 m/s 740 mmHg 69%
    07:00 +10°C° 0 mm 5 m/s 739 mmHg 67%
    08:00 +14°C° 0 mm 5 m/s 739 mmHg 64%
    09:00 +17°C° 0 mm 6 m/s 738 mmHg 60%
    10:00 +20°C° 0 mm 7 m/s 738 mmHg 57%
    11:00 +23°C° 0 mm 6 m/s 736 mmHg 56%
    12:00 +26°C° 0 mm 6 m/s 735 mmHg 55%
    13:00 +28°C° 0 mm 6 m/s 734 mmHg 54%
    14:00 +27°C° 0 mm 6 m/s 733 mmHg 54%
    15:00 +27°C° 0 mm 7 m/s 733 mmHg 54%
    16:00 +26°C° 0 mm 8 m/s 733 mmHg 54%
    17:00 +22°C° 0 mm 7 m/s 734 mmHg 57%
    18:00 +19°C° 0 mm 6 m/s 735 mmHg 61%
    19:00 +16°C° 0 mm 5 m/s 737 mmHg 65%
    20:00 +14°C° 0 mm 4 m/s 737 mmHg 69%
    21:00 +13°C° 0 mm 3 m/s 738 mmHg 74%
    22:00 +12°C° 0 mm 2 m/s 738 mmHg 78%
    23:00 +12°C° 0 mm 2 m/s 738 mmHg 80%

    24 Septembre, Dimanche

    Heure Température Précipitation Vent Pression Humidité
    00:00 +10°C° 0 mm 2 m/s 738 mmHg 82%
    01:00 +9°C° 0 mm 2 m/s 738 mmHg 84%
    02:00 +9°C° 0 mm 2 m/s 738 mmHg 85%
    03:00 +9°C° 0 mm 3 m/s 738 mmHg 86%
    04:00 +9°C° 0 mm 3 m/s 738 mmHg 87%
    05:00 +8°C° 0,2 mm 4 m/s 738 mmHg 86%
    06:00 +8°C° 0,2 mm 4 m/s 738 mmHg 85%
    07:00 +9°C° 0,2 mm 5 m/s 738 mmHg 85%
    08:00 +10°C° 0,2 mm 6 m/s 738 mmHg 82%
    09:00 +11°C° 0,2 mm 7 m/s 739 mmHg 80%
    10:00 +12°C° 0,2 mm 8 m/s 739 mmHg 77%
    11:00 +12°C° 0,3 mm 8 m/s 739 mmHg 78%
    12:00 +12°C° 0,3 mm 8 m/s 739 mmHg 78%
    13:00 +12°C° 0,3 mm 8 m/s 739 mmHg 78%
    14:00 +12°C° 0,2 mm 7 m/s 739 mmHg 77%
    15:00 +14°C° 0,2 mm 7 m/s 739 mmHg 76%
    16:00 +14°C° 0,2 mm 6 m/s 739 mmHg 75%
    17:00 +13°C° 0,2 mm 6 m/s 740 mmHg 79%
    18:00 +12°C° 0,2 mm 5 m/s 741 mmHg 82%
    19:00 +11°C° 0,2 mm 4 m/s 741 mmHg 85%
    20:00 +10°C° 0 mm 3 m/s 742 mmHg 87%
    21:00 +9°C° 0 mm 3 m/s 743 mmHg 89%
    22:00 +8°C° 0 mm 3 m/s 743 mmHg 91%
    23:00 +8°C° 0 mm 3 m/s 744 mmHg 92%

    25 Septembre, Lundi

    Heure Température Précipitation Vent Pression Humidité
    00:00 +7°C° 0 mm 2 m/s 744 mmHg 93%
    01:00 +7°C° 0 mm 2 m/s 744 mmHg 94%
    02:00 +7°C° 0 mm 2 m/s 744 mmHg 94%
    03:00 +7°C° 0 mm 2 m/s 744 mmHg 94%
    04:00 +7°C° 0 mm 1 m/s 744 mmHg 94%
    05:00 +8°C° 0 mm 1 m/s 744 mmHg 94%
    06:00 +8°C° 0 mm 1 m/s 745 mmHg 94%
    07:00 +7°C° 0 mm 2 m/s 745 mmHg 94%
    08:00 +8°C° 0,2 mm 2 m/s 745 mmHg 91%
    09:00 +9°C° 0,2 mm 2 m/s 746 mmHg 89%
    10:00 +10°C° 0,2 mm 3 m/s 746 mmHg 86%
    11:00 +11°C° 0,4 mm 3 m/s 746 mmHg 84%
    12:00 +12°C° 0,4 mm 4 m/s 745 mmHg 82%
    13:00 +13°C° 0,4 mm 5 m/s 745 mmHg 80%
    14:00 +14°C° 0,3 mm 5 m/s 745 mmHg 77%
    15:00 +14°C° 0,3 mm 5 m/s 745 mmHg 74%
    16:00 +14°C° 0,3 mm 5 m/s 745 mmHg 72%
    17:00 +13°C° 0,1 mm 4 m/s 745 mmHg 77%
    18:00 +11°C° 0,1 mm 3 m/s 746 mmHg 83%
    19:00 +9°C° 0,1 mm 2 m/s 746 mmHg 88%
    20:00 +8°C° 0 mm 2 m/s 747 mmHg 90%
    21:00 +7°C° 0 mm 2 m/s 747 mmHg 91%
    22:00 +6°C° 0 mm 2 m/s 748 mmHg 92%
    23:00 +6°C° 0 mm 2 m/s 748 mmHg 93%

    26 Septembre, Mardi

    Heure Température Précipitation Vent Pression Humidité
    00:00 +5°C° 0 mm 2 m/s 748 mmHg 93%
    01:00 +4°C° 0 mm 2 m/s 749 mmHg 93%
    02:00 +3°C° 0 mm 2 m/s 749 mmHg 94%
    03:00 +3°C° 0 mm 2 m/s 749 mmHg 94%
    04:00 +2°C° 0 mm 2 m/s 749 mmHg 94%
    05:00 +2°C° 0 mm 2 m/s 750 mmHg 93%
    06:00 +3°C° 0 mm 2 m/s 750 mmHg 93%
    07:00 +4°C° 0 mm 1 m/s 750 mmHg 92%
    08:00 +5°C° 0 mm 2 m/s 750 mmHg 82%
    09:00 +8°C° 0 mm 2 m/s 751 mmHg 72%
    10:00 +11°C° 0 mm 3 m/s 751 mmHg 62%
    11:00 +12°C° 0 mm 3 m/s 751 mmHg 59%
    12:00 +14°C° 0 mm 2 m/s 750 mmHg 57%
    13:00 +15°C° 0 mm 2 m/s 750 mmHg 54%
    14:00 +15°C° 0 mm 2 m/s 750 mmHg 55%
    15:00 +15°C° 0 mm 2 m/s 749 mmHg 56%
    16:00 +15°C° 0 mm 2 m/s 749 mmHg 56%
    17:00 +13°C° 0 mm 2 m/s 749 mmHg 63%
    18:00 +11°C° 0 mm 1 m/s 749 mmHg 71%
    19:00 +9°C° 0 mm 1 m/s 749 mmHg 78%
    20:00 +8°C° 0 mm 1 m/s 750 mmHg 79%
    21:00 +7°C° 0 mm 1 m/s 750 mmHg 81%
    22:00 +6°C° 0 mm 1 m/s 750 mmHg 82%
    23:00 +6°C° 0 mm 1 m/s 750 mmHg 82%
    Voir plus